www.pogodaiklimat.ru

Погода и климат >> Архив погоды >> Россия >> Нижегородская область >> Большое Болдино


ПОГОДА в Большом Болдино

  • Прогноз погоды в Большом Болдино
  • Монитор погоды в Большом Болдино
  • Климат города

АРХИВ ПОГОДЫ в Большом Болдино

Время (UTC), дата Ветер
(напр.,м/с)
 
Видим.   Явления Облачность Т
(С)
Тd
(С)
f
(%)
Тe
(С)
Тes
(С)
Комфортность P
(гПа)
Po
(гПа)
Тmin
(С)
Tmax
(С)
R
(мм)
R24
(мм)
S
(см)
03 16.04 З 2-2
{3}
10 км 3/0
[Ci fib]
+2.6 -4.4 60 0 +1 1019.3 995.4 +1.8 0
06 16.04 З 1-2
{3}
20 км ясно +9.4 -1.2 47 +9 +18 1019.1 995.8
09 16.04 СЗ 3-5
{6}
20 км ясно +14.2 -2.5 31 +14 +23 1018.7 995.8
12 16.04 З 3-7
{7}
20 км ясно +16.1 -0.7 32 +16 +22 1017.8 995.0
15 16.04 З 3-5
{7}
20 км ясно +14.7 -1.4 33 +14 +15 1016.8 993.9 +16.6
18 16.04 СЗ 1-2
{5}
20 км ясно +8.7 -1.9 47 +9 +9 1017.3 993.9
21 16.04 штиль 0
{2}
20 км ясно +4.6 -1.4 65 +4 +4 1017.4 993.6
00 17.04 ЮВ 1-1
{2}
20 км 4/0
[Ci fib]
+3.0 -1.8 71 +2 +2 1017.4 993.6
03 17.04 В 1-1
{2}
20 км 4/0
[Ci fib]
+2.4 -1.2 77 +1 +2 1017.8 993.9 +1.4
06 17.04 СВ 1-2
{2}
20 км ясно +13.3 +3.2 50 +14 +22 1017.2 994.2
12 17.04 С 1-3
{5}
20 км 3/3 600 м
[Cu hum]
+18.8 -2.2 24 +20 +26 1016.0 993.4
15 17.04 штиль 0
{4}
20 км 8/0
[Ci]
+17.1 0.0 31 +17 +18 1015.0 992.4 +19.4
18 17.04 Ю 1-2
{2}
20 км 10/4 600 м
[Sc Ac und]
+13.7 +0.9 42 +14 +14 1015.7 992.8
21 17.04 Ю 1-1
{4}
20 км 10/0
[Ci fib]
+9.5 +2.7 63 +9 +9 1015.6 992.4
00 18.04 В 1-2
{5}
20 км 10/0
[Ci fib]
+7.0 +2.1 71 +6 +6 1015.3 991.9
03 18.04 Ю 1-1
{4}
10 км 10/0
[Cs]
+6.4 +3.3 81 +5 +6 1014.7 991.2 +6.2
06 18.04 ЮВ 1-1
{2}
10 км 10/0
[Cs]
+10.4 +7.0 79 +10 +17 1013.1 990.0
09 18.04 Ю 2-4
{4}
10 км 10/3 600 м
[Sc Ac trans Ci fib]
+12.9 +6.8 66 +12 +16 1013.2 990.3
12 18.04 Ю 1-1
{4}
4000 м слабый дождь 10/8 480 м
[Sc Ac und]
+11.6 +9.0 84 +11 +12 1012.1 989.1
15 18.04 В 2-4
{4}
4000 м слабый дождь 10/8 420 м
[Sc Ac und]
+10.9 +9.5 91 +10 +10 1010.0 987.1 +13.5 0.6
18 18.04 В 3-5
{6}
500 м туман {дождь} ?/? +9.7 +9.3 97 +7 +7 1008.0 985.0
21 18.04 В 3-5
{6}
4000 м дымка {туман} 10/10 400 м
[St]
+9.1 +8.1 93 +7 +7 1005.6 982.5
00 19.04 В 5-8
{9}
4000 м слабый дождь {туман} 10/0 300 м
[As op]
+8.8 +7.7 93 +5 +5 1002.0 979.0
03 19.04 В 3-5
{8}
4000 м слабый дождь {туман} 10/0 300 м
[As op]
+8.3 +7.4 94 +5 +6 1000.2 977.3 +8.2 7
06 19.04 Ю 2-4
{6}
4000 м дымка {дождь, морось} 10/10 300 м
[St]
+7.1 +6.2 94 +5 +5 1000.0 977.0 +6.8
09 19.04 ЮЗ 1-2
{4}
4000 м дымка {дождь} 10/10 300 м
[St]
+7.3 +6.4 94 +6 +6 1000.1 977.1
12 19.04 Ю 1-2
{4}
4000 м дымка {дождь} 10/10 480 м
[Sc]
+9.1 +6.5 84 +8 +8 1000.2 977.3
15 19.04 штиль 0
{2}
4000 м слабый дождь 10/10 540 м
[Sc]
+8.4 +5.8 84 +8 +8 1000.3 977.4 +9.3 0.6
18 19.04 С 2-3
{4}
2000 м дымка {дождь} 10/10 540 м
[Sc]
+6.8 +5.7 93 +4 +4 1001.2 978.1
21 19.04 С 2-3
{3}
4000 м слабый дождь {туман} 10/0 330 м
[As op]
+6.1 +5.2 94 +4 +4 1001.6 978.4
00 20.04 СВ 3-6
{6}
4000 м дымка {дождь, туман} 10/10 360 м
[Sc]
+5.6 +4.7 94 +2 +2 1002.0 978.8
03 20.04 С 4-7
{7}
4000 м слабая морось {дождь} 10/10 300 м
[St]
+5.4 +4.7 95 +1 +1 1003.1 979.8 +5.0 3
06 20.04 С 6-9
{10}
20 км {дождь, морось} 10/4 600 м
[Sc Ac und]
+5.6 +2.2 79 +1 +1 1006.1 982.7
09 20.04 С 8-11
{12}
20 км 4/0
[Ci fib]
+9.2 +0.9 56 +5 +7 1007.3 984.2
12 20.04 С 8-10
{13}
20 км 10/0
[Ci fib]
+9.0 -0.7 51 +5 +6 1008.5 985.4
15 20.04 С 6-10
{12}
20 км 4/0
[Ci fib]
+7.1 -2.5 50 +3 +4 1009.6 986.3 +9.8
18 20.04 СВ 1-2
{9}
20 км 4/0
[Ci fib]
+2.6 -4.4 60 +2 +2 1011.1 987.4
21 20.04 С 1-1
{3}
20 км 3/0
[Ci fib]
-0.2 -4.5 73 -2 -2 1011.3 987.3
00 21.04 С 1-1
{2}
20 км 10/0
[Ci fib]
-0.6 -4.4 75 -2 -2 1010.7 986.7
03 21.04 В 1-2
{2}
20 км 4/0
[Ac trans]
-1.1 -4.3 79 -3 -2 1010.0 986.0 -2.6
06 21.04 Ю 2-4
{4}
20 км 10/0
[Cs]
+5.3 -4.7 48 +3 +9 1007.8 984.4
09 21.04 Ю 3-7
{8}
20 км 10/4 600 м
[Sc Ac trans Ci fib]
+9.2 -4.1 39 +7 +11 1004.1 981.1
12 21.04 Ю 3-8
{10}
20 км 10/5 600 м
[Sc Ac As Ci fib]
+8.7 -0.5 52 +7 +8 1002.3 979.2
15 21.04 Ю 4-8
{10}
20 км {дождь} 10/5 600 м
[Sc Ac As]
+8.2 +3.2 71 +5 +5 996.1 973.2 +9.5 0.0
18 21.04 Ю 4-10
{11}
20 км {дождь} 10/0
[Ac As Ci fib]
+8.5 +2.3 65 +6 +6 988.6 965.9
21 21.04 ЮЗ 7-14
{14}
20 км 10/0
[Ac und]
+10.0 +2.9 61 +7 +7 983.6 961.2
00 22.04 ЮЗ 4-8
{14}
4000 м слабый дождь 10/8 420 м
[Sc Ac und]
+8.8 +6.8 87 +6 +6 982.7 959.3
03 22.04 З 8-13
{13}
20 км {дождь} 10/10 300 м
[Cb cap]
+7.3 +4.5 82 +2 +2 982.1 959.4 +7.0 1
06 22.04 З 10-14
{15}
20 км {дождь} 10/10 450 м
[Sc]
+2.6 +0.5 86 -5 -5 983.8 960.7 +2.5
09 22.04 З 8-12
{14}
10 км слабая крупа {ливн. осадки} 10/10 420 м
[Cb calv]
+1.4 -0.3 88 -6 -6 987.2 963.9
12 22.04 З 10-14
{17}
20 км в посл. час крупа {ливн. осадки} 10/10 1020 м
[Cb calv]
+1.0 -2.9 75 -7 -7 991.4 968.0
15 22.04 З 7-12
{16}
20 км 10/8 1080 м
[Cb calv Ac und]
+0.1 -3.3 78 -7 -7 994.4 970.9 +7.5 0.4
18 22.04 СЗ 8-13
{15}
20 км в посл. час ливневой снег 10/9 630 м
[Cb calv Ac und]
-0.6 -4.0 78 -8 -8 997.4 973.7
21 22.04 СЗ 7-10
{13}
10 км слабый ливневой снег 10/10 600 м
[Cb calv]
-1.6 -4.0 84 -9 -9 998.8 975.0

 

Местоположение метеостанции Большое Болдино (Нижегородская область, Россия): широта 55.02 долгота 45.32 высота над уровнем моря 192 м.

В архиве по умолчанию представлена погода в Большом Болдино за последнюю неделю. Архивные данные за месяц целиком и за предыдущие месяцы, начиная с января 2011 года, Вы можете получить, выбрав интересующий диапазон дат из раскрывающегося списка и нажав кнопку "Ввод!".


*Определитесь, кто Вы:
робот инопланетянин человек

Внимание! Время в таблицах - всемирное. Для получения местного времени необходимо прибавить поправку, которая в Большом Болдино равна 3 ч.

Смотрите также архив погоды в соседних городах и на ближайших метеорологических станциях:

Погода в Лукоянове (Нижегородская область, Россия) (52 км)
Погода в Сергаче (Нижегородская область, Россия) (58 км)
Погода в Порецком (Чувашия, Россия) (67 км)
Погода в Алатыре (Чувашия, Россия) (84 км)
Погода в Саранске (Мордовия, Россия) (99 км)
Погода в Больших Березниках (Мордовия, Россия) (104 км)
Погода в Арзамасе (Нижегородская область, Россия) (105 км)
Погода в Сурском (Ульяновская область, Россия) (107 км)
Погода в Лысково (Нижегородская область, Россия) (112 км)
Погода в Дальнем Константиново (Нижегородская область, Россия) (117 км)

Пояснения к столбцам:

Ветер - указаны скорость ветра в м/с - средняя за 10 мин, порывы в срок и между сроками (в фигурных скобках) и направление, откуда дует ветер: С - северный, СВ - северо-восточный, В - восточный, ЮВ - юго-восточный, Ю - южный, ЮЗ - юго-западный, З - западный, СЗ - северо-западный.
Видимость - горизонтальная дальность видимости в метрах или километрах. При видимости от 1 до 10 км при отсутствии осадков обычно наблюдается дымка, при ухудшении видимости до 1 км и менее - туман. В сухую погоду видимость может ухудшаться дымом, пылью или мглою.
Явления - указаны атмосферные явления, наблюдавшиеся в срок или в последний час перед сроком; фигурными скобками обозначены явления, наблюдавшиеся между сроками (за 1-3 часа до срока); квадратными скобками обозначены град или гололедные отложения с указанием их диаметра в мм.
Облачность - указаны через наклонную черту общая и нижняя облачность в баллах и высота нижней границы облаков в метрах; квадратными скобками обозначены формы облаков: Ci - перистые, Cs - перисто-слоистые, Cc - перисто-кучевые, Ac - высококучевые, As - высокослоистые, Sc - слоисто-кучевые, Ns - слоисто-дождевые, Cu - кучевые, Cb - кучево-дождевые. Подробнее классификацию облаков см. в Атласе облаков (PDF).
T - Температура воздуха - температура, измеренная на высоте 2 м над землей.
Td - Температура точки росы - температура, при понижении до которой содержащийся в воздухе водяной пар достигнет насыщения.
f - Относительная влажность воздуха - влажноcть воздуха, измеренная на высоте 2 м над землей.
Te - Эффективная температура - температура, которую ощущает одетый по сезону человек в тени. Характеристика душности погоды. При расчете учитывается влияние влажности воздуха и скорости ветра на теплоощущения человека.
Tes - Эффективная температура на солнце - температура, которую ощущает человек, с поправкой на солнечный нагрев. Характеристика знойности погоды. Зависит от высоты солнца над горизонтом, облачности и скорости ветра. Ночью, в пасмурную погоду, а также при ветре 12 м/с и более поправка равна нулю.
P - Атмосферное давление - приведенное к уровню моря атмосферное давление.
Po - Атмосферное давление - измеренное на уровне метеостанции атмосферное давление.
Tmin - Минимальная температура - минимум температуры воздуха на высоте 2 м над землей.
Tmax - Максимальная температура - максимум температуры воздуха на высоте 2 м над землей.
R - Количество осадков - Количество выпавших осадков за период времени, мм. При наведении курсора мыши на число - период времени, за который выпало указанное количество осадков.
R24 - Количество осадков - Количество выпавших осадков за 24 часа, мм.
S - Снежный покров - Высота снежного покрова, см. При наведении курсора мыши на число - состояние снежного покрова и степень покрытия местности в баллах.